Regional Weather Roundup
Issued by NWS

Home | Current Version | Previous Version | Graphics & Text | Print | Product List | Glossary On
Versions: 1 2 3 4 5 6 7 8 9 10 11 12 13 14 15 16 17 18 19 20 21 22 23 24 25 26 27 28 29 30 31 32 33 34 35 36 37 38 39 40 41 42 43 44 45 46 47 48 49 50
000
ASUS45 KCYS 310110
RWRWY

WYOMING REGIONAL WEATHER ROUNDUP
NATIONAL WEATHER SERVICE CHEYENNE WY
600 PM MST FRI JAN 30 2015

NOTE:  "FAIR" INDICATES FEW OR NO CLOUDS BELOW 12,000 FEET
WITH NO SIGNIFICANT WEATHER AND/OR OBSTRUCTIONS TO VISIBILITY.

WYZ001-310200-
YELLOWSTONE NATIONAL PARK

CITY           SKY/WX    TMP DP  RH WIND       PRES   REMARKS
LK YELLOWSTONE   N/A      9   5  84 CALM      30.14S
W YELLOWSTONE  NOT AVBL

$$
WYZ002>013-054>058-071-098>099-310200-
NORTHERN WYOMING

CITY           SKY/WX    TMP DP  RH WIND       PRES   REMARKS
JACKSON        CLEAR     19  16  86 CALM      30.11F
CODY             N/A     34  30  86 CALM      30.14S
GREYBULL       FOG       28  27  96 CALM      30.17F VSB 1/4
WORLAND        FAIR      25  23  92 E6        30.16S WCI  18
SHERIDAN       FAIR      31  21  66 CALM      30.14S
BUFFALO        FAIR      33  20  58 W8        30.16S WCI  26
GILLETTE       FAIR      28  22  78 S5        30.14F WCI  23
HULETT           N/A    N/A N/A N/A MISG        N/A
NEWCASTLE      FAIR      34  25  69 SE9       30.13R WCI  26

$$
WYZ014>020-022>026-101>103-310200-
CENTRAL WYOMING

CITY           SKY/WX    TMP DP  RH WIND       PRES   REMARKS
BIG PINEY      CLOUDY    30  22  72 N5        30.11R WCI  25
PINEDALE       CLOUDY    28  21  74 NW5       30.11S WCI  23
DUBOIS         FAIR      30  19  64 S7        30.11S WCI  23
LANDER         CLOUDY    35  26  69 CALM      30.13F
RIVERTON       FAIR      33  27  78 SW6       30.14F WCI  28
CASPER         FAIR      35  20  54 NE10      30.13F WCI  27
DOUGLAS        FAIR      35  22  58 CALM      30.14R

$$
WYZ021-027>030-104>119-310200-
SOUTHERN WYOMING

CITY           SKY/WX    TMP DP  RH WIND       PRES   REMARKS
EVANSTON       CLOUDY    34  24  67 NE9       30.04F WCI  27
KEMMERER       CLOUDY    32  27  80 NE8       30.07S WCI  25
FORT BRIDGER   CLOUDY    34  31  88 NE5       30.09S WCI  30
ROCK SPRINGS   CLOUDY    34  30  85 E13       30.07S WCI  25
DIXON          CLOUDY    37  32  82 E5        30.05S WCI  34
RAWLINS        CLOUDY    36  29  75 NE10      30.09S WCI  28
SARATOGA       CLOUDY    34  32  93 NW5       30.08S WCI  30
LARAMIE        CLOUDY    33  29  85 N5        30.09S WCI  29
CHEYENNE       CLOUDY    37  23  56 N7        30.10R WCI  32
TORRINGTON     FAIR      38  27  64 NE8       30.10R WCI  32
PINE BLUFFS    FAIR      34  28  80 N7        30.11R WCI  28

$$


USA.gov is the U.S. government's official web portal to all federal, state and local government web resources and services.